TimeAKST,TemperatureF,Dew PointF,Humidity,Sea Level PressureIn,VisibilityMPH,Wind Direction,Wind SpeedMPH,Gust SpeedMPH,PrecipitationIn,Events,Conditions,WindDirDegrees,DateUTC
12:54 AM,41.0,33.1,73,29.44,10.0,SSE,20.7,28.8,N/A,,Mostly Cloudy,150,2013-01-20 09:54:00
1:54 AM,41.0,33.1,73,29.47,10.0,SE,27.6,33.4,N/A,,Overcast,140,2013-01-20 10:54:00
2:54 AM,39.9,33.1,77,29.52,10.0,SE,19.6,25.3,0.01,,Overcast,130,2013-01-20 11:54:00
3:54 AM,39.0,34.0,82,29.54,10.0,SE,17.3,29.9,N/A,,Partly Cloudy,140,2013-01-20 12:54:00
4:54 AM,37.9,33.1,83,29.55,10.0,SE,18.4,24.2,N/A,,Clear,140,2013-01-20 13:54:00
5:54 AM,37.9,32.0,79,29.57,10.0,SSE,16.1,-,N/A,,Clear,150,2013-01-20 14:54:00
6:54 AM,37.0,30.9,79,29.58,10.0,SSE,16.1,-,N/A,,Clear,160,2013-01-20 15:54:00
7:54 AM,37.0,32.0,82,29.59,10.0,SSE,12.7,-,N/A,,Clear,160,2013-01-20 16:54:00
8:54 AM,36.0,30.9,82,29.60,10.0,SE,12.7,-,N/A,,Clear,130,2013-01-20 17:54:00
9:54 AM,36.0,28.9,76,29.62,10.0,ESE,9.2,-,N/A,,Scattered Clouds,110,2013-01-20 18:54:00
10:54 AM,36.0,28.9,76,29.64,10.0,ESE,9.2,-,N/A,,Scattered Clouds,110,2013-01-20 19:54:00
11:54 AM,37.0,30.0,76,29.66,10.0,East,5.8,-,N/A,,Scattered Clouds,100,2013-01-20 20:54:00
12:54 PM,37.9,30.9,76,29.65,10.0,ENE,8.1,-,N/A,,Scattered Clouds,70,2013-01-20 21:54:00
1:54 PM,37.9,30.0,73,29.66,10.0,SE,6.9,-,N/A,,Mostly Cloudy,140,2013-01-20 22:54:00
2:54 PM,37.9,30.0,73,29.65,10.0,East,5.8,-,N/A,,Mostly Cloudy,90,2013-01-20 23:54:00
3:54 PM,39.0,30.0,70,29.66,10.0,East,5.8,-,N/A,,Mostly Cloudy,80,2013-01-21 00:54:00
4:54 PM,35.1,30.0,82,29.67,10.0,NE,8.1,-,N/A,,Mostly Cloudy,50,2013-01-21 01:54:00
5:54 PM,37.0,30.0,76,29.66,10.0,ESE,9.2,-,N/A,,Mostly Cloudy,120,2013-01-21 02:54:00
6:54 PM,35.1,28.9,78,29.66,10.0,SE,4.6,-,N/A,,Mostly Cloudy,130,2013-01-21 03:54:00
7:54 PM,34.0,28.9,82,29.66,10.0,SE,4.6,-,N/A,,Mostly Cloudy,140,2013-01-21 04:54:00
8:54 PM,34.0,28.9,82,29.65,10.0,ENE,3.5,-,N/A,,Mostly Cloudy,60,2013-01-21 05:54:00
9:54 PM,35.1,28.9,78,29.66,10.0,SE,5.8,-,N/A,,Overcast,140,2013-01-21 06:54:00
10:54 PM,36.0,30.0,79,29.66,10.0,East,6.9,-,N/A,,Overcast,100,2013-01-21 07:54:00
11:54 PM,36.0,30.0,79,29.65,10.0,ENE,8.1,-,N/A,,Overcast,70,2013-01-21 08:54:00